Location: Bartshausen
(51.8454°N, 9.8167°E)
Time: 11:02:28
(UTC+00:00)

Cosmos 1980 - Pass Details

Date: 08 November 2025
Orbit: 836 x 847 km, 71.0° (Epoch: 10 December)

Event Time Altitude Azimuth Distance (km) Brightness Sun altitude
Rises 05:00:07 0° 207° (SSW) 3,380 6.7 -13.7°
Reaches altitude 10° 05:02:32 10° 207° (SSW) 2,451 5.9 -13.3°
Maximum altitude 05:08:11 87° 118° (ESE) 850 3.7 -12.5°
Drops below altitude 10° 05:13:52 10° 31° (NNE) 2,475 6.4 -11.6°
Sets 05:16:20 0° 31° (NNE) 3,415 7.1 -11.2°
